TimeEDT,TemperatureF,Dew PointF,Humidity,Sea Level PressureIn,VisibilityMPH,Wind Direction,Wind SpeedMPH,Gust SpeedMPH,PrecipitationIn,Events,Conditions,WindDirDegrees,DateUTC
12:52 AM,73.0,72.0,96,30.08,7.0,Calm,Calm,-,N/A,,Clear,0,2013-09-05 04:52:00
1:52 AM,72.0,72.0,100,30.06,4.0,Calm,Calm,-,N/A,,Clear,0,2013-09-05 05:52:00
2:07 AM,71.6,69.8,94,30.07,1.8,Calm,Calm,-,N/A,,Clear,0,2013-09-05 06:07:00
2:17 AM,71.6,69.8,94,30.07,3.0,Calm,Calm,-,N/A,,Clear,0,2013-09-05 06:17:00
2:52 AM,71.1,70.0,96,30.06,3.0,NNE,3.5,-,N/A,,Clear,30,2013-09-05 06:52:00
3:34 AM,71.6,71.6,100,30.06,2.5,Calm,Calm,-,N/A,,Partly Cloudy,0,2013-09-05 07:34:00
3:50 AM,69.8,69.8,100,30.06,1.8,Calm,Calm,-,N/A,,Scattered Clouds,0,2013-09-05 07:50:00
3:52 AM,70.0,70.0,100,30.05,2.0,Calm,Calm,-,N/A,,Scattered Clouds,0,2013-09-05 07:52:00
3:55 AM,69.8,69.8,100,30.06,3.0,Calm,Calm,-,N/A,,Mostly Cloudy,0,2013-09-05 07:55:00
4:19 AM,69.8,69.8,100,30.06,1.5,Calm,Calm,-,N/A,,Mostly Cloudy,0,2013-09-05 08:19:00
4:29 AM,69.8,69.8,100,30.06,3.0,North,3.5,-,N/A,,Mostly Cloudy,360,2013-09-05 08:29:00
4:52 AM,71.1,71.1,100,30.05,2.0,Calm,Calm,-,N/A,,Overcast,0,2013-09-05 08:52:00
4:56 AM,71.6,71.6,100,30.06,0.8,Calm,Calm,-,N/A,,Overcast,0,2013-09-05 08:56:00
5:04 AM,71.6,71.6,100,30.05,0.5,Calm,Calm,-,N/A,Fog,Fog,0,2013-09-05 09:04:00
5:40 AM,69.8,69.8,100,30.06,1.2,North,3.5,-,N/A,,Mostly Cloudy,350,2013-09-05 09:40:00
5:42 AM,69.8,69.8,100,30.05,3.0,North,3.5,-,N/A,,Mostly Cloudy,350,2013-09-05 09:42:00
5:50 AM,69.8,69.8,100,30.05,4.0,North,3.5,-,N/A,,Scattered Clouds,10,2013-09-05 09:50:00
5:52 AM,70.0,70.0,100,30.05,4.0,North,3.5,-,N/A,,Partly Cloudy,10,2013-09-05 09:52:00
6:15 AM,69.8,69.8,100,30.06,2.5,Calm,Calm,-,N/A,,Partly Cloudy,0,2013-09-05 10:15:00
6:24 AM,69.8,69.8,100,30.06,4.0,Calm,Calm,-,N/A,,Clear,0,2013-09-05 10:24:00
6:52 AM,69.1,69.1,100,30.07,4.0,Calm,Calm,-,N/A,,Clear,0,2013-09-05 10:52:00
7:07 AM,69.8,69.8,100,30.07,2.5,North,3.5,-,N/A,,Clear,10,2013-09-05 11:07:00
7:15 AM,69.8,69.8,100,30.08,3.0,Calm,Calm,-,N/A,,Clear,0,2013-09-05 11:15:00
7:32 AM,71.6,69.8,94,30.08,2.5,NNW,3.5,-,N/A,,Clear,340,2013-09-05 11:32:00
7:44 AM,69.8,69.8,100,30.09,3.0,North,3.5,-,N/A,,Clear,350,2013-09-05 11:44:00
7:52 AM,70.0,70.0,100,30.09,2.5,Calm,Calm,-,N/A,,Clear,0,2013-09-05 11:52:00
8:05 AM,71.6,69.8,94,30.09,3.0,NNE,3.5,-,N/A,,Clear,20,2013-09-05 12:05:00
8:52 AM,75.9,72.0,87,30.09,6.0,North,4.6,-,N/A,,Clear,360,2013-09-05 12:52:00
9:52 AM,81.0,72.0,74,30.10,8.0,North,4.6,-,N/A,,Clear,10,2013-09-05 13:52:00
10:52 AM,84.9,66.0,53,30.10,10.0,NE,4.6,-,N/A,,Clear,40,2013-09-05 14:52:00
11:52 AM,86.0,62.1,44,30.10,10.0,NE,3.5,-,N/A,,Clear,40,2013-09-05 15:52:00
12:52 PM,86.0,63.0,46,30.09,10.0,ESE,5.8,-,N/A,,Clear,110,2013-09-05 16:52:00
1:52 PM,88.0,64.0,45,30.07,10.0,West,4.6,-,N/A,,Clear,280,2013-09-05 17:52:00
2:52 PM,90.0,64.9,43,30.05,10.0,NW,6.9,-,N/A,,Mostly Cloudy,320,2013-09-05 18:52:00
3:52 PM,88.0,64.9,46,30.03,10.0,WSW,8.1,-,N/A,,Partly Cloudy,250,2013-09-05 19:52:00
4:52 PM,88.0,64.0,45,30.03,10.0,West,8.1,-,N/A,,Clear,280,2013-09-05 20:52:00
5:52 PM,87.1,64.0,46,30.03,10.0,West,5.8,-,N/A,,Clear,280,2013-09-05 21:52:00
6:52 PM,82.9,66.0,56,30.03,10.0,NW,5.8,-,N/A,,Clear,310,2013-09-05 22:52:00
7:52 PM,79.0,66.0,64,30.04,10.0,NNW,3.5,-,N/A,,Clear,330,2013-09-05 23:52:00
8:52 PM,75.0,68.0,79,30.06,10.0,Calm,Calm,-,N/A,,Clear,0,2013-09-06 00:52:00
9:52 PM,71.1,69.1,93,30.07,8.0,Calm,Calm,-,N/A,,Clear,0,2013-09-06 01:52:00
10:52 PM,70.0,64.9,84,30.07,10.0,North,4.6,-,N/A,,Clear,350,2013-09-06 02:52:00
11:52 PM,68.0,64.9,90,30.08,10.0,Calm,Calm,-,N/A,,Clear,0,2013-09-06 03:52:00